Weather History for 94294 - December, 2013

Change the Weather History Date:

Monday, December 9, 2013

  Actual Average Record
Temperature  
Mean Temperature 81 °F -  
Max Temperature 89 °F 89 °F - ()
Min Temperature 73 °F 75 °F - ()
Cooling Degree Days 16    
Growing Degree Days 31 (Base 50)    
Moisture  
Dew Point 64 °F    
Average Humidity 55    
Maximum Humidity 73    
Minimum Humidity 29    
Precipitation  
Precipitation 0.00 in 0.23 in - ()
Sea Level Pressure  
Sea Level Pressure 29.86 in    
Wind  
Wind Speed 11 mph ()    
Max Wind Speed 23 mph    
Max Gust Speed -    
Visibility 6.9 miles    
Events      
T = Trace of Precipitation, MM = Missing Value Source: Averaged Metar Reports

Daily Weather History Graph

Daily Weather History Graph

Search for Another Location

Airport or City:

Trip Planner

Search our weather history database for the weather conditions in past years. The results will help you decide how hot, cold, wet, or windy it might be!

Date:

Astronomy

Dec. 09, 2013 Rise Set
Actual Time 5:27 AM AEST 6:43 PM AEST
Civil Twilight 5:03 AM AEST 7:07 PM AEST
Nautical Twilight 4:34 AM AEST 7:36 PM AEST
Astronomical Twilight 4:04 AM AEST 8:05 PM AEST
Moon 11:35 AM AEST (12/9) No Moon Set
Length of Visible Light 14h 04m
Length of Day
13h 15m
Waxing Crescent, 44% of the Moon is Illuminated
Dec 9
Waxing Crescent
Dec 10
First Quarter
Dec 17
Full
Dec 25
Last Quarter
Jan 1
New

Hourly Weather History & Observations

Time (AEST) Temp. Heat Index Dew Point Humidity Pressure Visibility Wind Dir Wind Speed Gust Speed Precip Events Conditions
12:00 AM 78 °F - 65 °F 57% 29.94 in - East 11.5 mph - -  
12:00 AM 78.8 °F - 66.2 °F 65% 29.92 in 6.2 mi East 11.5 mph - N/A   Scattered Clouds
12:30 AM 77.0 °F - 66.2 °F 69% 29.92 in 6.2 mi SE 10.4 mph - N/A   Mostly Cloudy
1:00 AM 77 °F - 66 °F 62% 29.92 in - SE 9.2 mph - -  
1:00 AM 77.0 °F - 66.2 °F 69% 29.89 in 6.2 mi SE 9.2 mph - N/A   Scattered Clouds
1:30 AM 77.0 °F - 66.2 °F 69% 29.89 in 6.2 mi SE 9.2 mph - N/A   Scattered Clouds
2:00 AM 75.2 °F - 66.2 °F 73% 29.89 in 6.2 mi SE 8.1 mph - N/A   Scattered Clouds
2:30 AM 75.2 °F - 64.4 °F 69% 29.86 in 6.2 mi SE 9.2 mph - N/A   Unknown
3:00 AM 76 °F - 64 °F 59% 29.88 in - ESE 10.4 mph - -  
3:00 AM 75.2 °F - 64.4 °F 69% 29.86 in 6.2 mi ESE 10.4 mph - N/A   Unknown
3:30 AM 75.2 °F - 64.4 °F 69% 29.86 in 6.2 mi SE 8.1 mph - N/A   Unknown
4:00 AM 75 °F - 64 °F 61% 29.89 in - SE 8.1 mph - -  
4:00 AM 75.2 °F - 64.4 °F 69% 29.86 in 6.2 mi SE 8.1 mph - N/A   Unknown
4:30 AM 75.2 °F - 64.4 °F 69% 29.86 in 6.2 mi ESE 9.2 mph - N/A   Unknown
5:00 AM 75.2 °F - 64.4 °F 69% 29.86 in 6.2 mi SE 6.9 mph - N/A   Unknown
5:30 AM 75.2 °F - 64.4 °F 69% 29.89 in 6.2 mi ESE 9.2 mph - N/A   Unknown
6:00 AM 74 °F - 64 °F 65% 29.91 in 16 mi SE 5.8 mph - -   Haze
6:00 AM 75.2 °F - 64.4 °F 69% 29.89 in 6.2 mi SE 5.8 mph - N/A   Partly Cloudy
6:30 AM 77.0 °F - 64.4 °F 65% 29.92 in 6.2 mi SSE 5.8 mph - N/A   Partly Cloudy
7:00 AM 78 °F - 63 °F 51% 29.94 in - SE 5.8 mph - -  
7:00 AM 78.8 °F - 62.6 °F 57% 29.92 in 6.2 mi SE 5.8 mph - N/A   Partly Cloudy
7:30 AM 80.6 °F 81.5 °F 60.8 °F 51% 29.92 in 6.2 mi ESE 9.2 mph - N/A   Partly Cloudy
8:00 AM 82.4 °F 82.9 °F 60.8 °F 48% 29.92 in 6.2 mi ESE 12.7 mph - N/A   Partly Cloudy
8:30 AM 80.6 °F 81.5 °F 60.8 °F 51% 29.92 in 6.2 mi ESE 11.5 mph - N/A   Partly Cloudy
9:00 AM 82 °F - 62 °F 40% 29.93 in 22 mi ESE 10.4 mph - -   Partly Cloudy
9:00 AM 82.4 °F 82.9 °F 60.8 °F 48% 29.92 in 6.2 mi ESE 10.4 mph - N/A   Partly Cloudy
9:30 AM 84.2 °F 85.0 °F 62.6 °F 48% 29.92 in 6.2 mi ESE 13.8 mph - N/A   Partly Cloudy
10:00 AM 85 °F - 61 °F 35% 29.93 in - East 13.8 mph - -  
10:00 AM 84.2 °F 84.4 °F 60.8 °F 45% 29.92 in 6.2 mi East 13.8 mph - N/A   Partly Cloudy
10:30 AM 87.8 °F 87.6 °F 60.8 °F 40% 29.89 in 6.2 mi East 15.0 mph - N/A   Partly Cloudy
11:00 AM 86.0 °F 86.6 °F 62.6 °F 45% 29.89 in 6.2 mi ENE 16.1 mph - N/A   Partly Cloudy
11:30 AM 87.8 °F 88.5 °F 62.6 °F 43% 29.86 in 6.2 mi ENE 18.4 mph - N/A   Partly Cloudy
12:00 PM 88 °F - 64 °F 35% 29.87 in 22 mi ENE 18.4 mph - -   Partly Cloudy
12:00 PM 87.8 °F 89.4 °F 64.4 °F 46% 29.86 in 6.2 mi ENE 18.4 mph - N/A   Partly Cloudy
12:30 PM 86.0 °F 86.6 °F 62.6 °F 45% 29.83 in 6.2 mi ENE 18.4 mph - N/A   Partly Cloudy
1:00 PM 89 °F - 61 °F 29% 29.86 in - ENE 19.6 mph - -  
1:00 PM 87.8 °F 87.6 °F 60.8 °F 40% 29.83 in 6.2 mi ENE 19.6 mph - N/A   Partly Cloudy
1:30 PM 87.8 °F 88.5 °F 62.6 °F 43% 29.83 in 6.2 mi ENE 20.7 mph - N/A   Partly Cloudy
2:00 PM 87.8 °F 87.6 °F 60.8 °F 40% 29.80 in 6.2 mi ENE 21.9 mph - N/A   Partly Cloudy
2:30 PM 86.0 °F 86.1 °F 60.8 °F 43% 29.80 in 6.2 mi ENE 23.0 mph - N/A   Partly Cloudy
3:00 PM 86 °F - 62 °F 35% 29.81 in 22 mi ENE 21.9 mph - -   Partly Cloudy
3:00 PM 86.0 °F 86.6 °F 62.6 °F 45% 29.80 in 6.2 mi ENE 21.9 mph - N/A   Partly Cloudy
3:30 PM 86.0 °F 86.1 °F 60.8 °F 43% 29.80 in 6.2 mi ENE 19.6 mph - N/A   Partly Cloudy
4:00 PM 85 °F - 61 °F 34% 29.81 in - ENE 20.7 mph - -  
4:00 PM 84.2 °F 84.4 °F 60.8 °F 45% 29.80 in 6.2 mi ENE 20.7 mph - N/A   Partly Cloudy
4:30 PM 84.2 °F 85.0 °F 62.6 °F 48% 29.80 in 6.2 mi ENE 18.4 mph - N/A   Partly Cloudy
5:00 PM 82.4 °F 83.4 °F 62.6 °F 51% 29.80 in 6.2 mi ENE 17.3 mph - N/A   Partly Cloudy
5:30 PM 82.4 °F 83.4 °F 62.6 °F 51% 29.80 in 6.2 mi NE 15.0 mph - N/A   Partly Cloudy
6:00 PM 81 °F - 64 °F 46% 29.81 in 19 mi ENE 13.8 mph - -   Haze
6:00 PM 80.6 °F 82.3 °F 64.4 °F 58% 29.80 in 6.2 mi ENE 13.8 mph - N/A   Partly Cloudy
6:30 PM 80.6 °F 82.3 °F 64.4 °F 58% 29.80 in 6.2 mi NE 12.7 mph - N/A   Partly Cloudy
7:00 PM 80 °F - 65 °F 50% 29.84 in - NE 11.5 mph - -  
7:00 PM 78.8 °F - 64.4 °F 61% 29.83 in 6.2 mi NE 11.5 mph - N/A   Partly Cloudy
7:30 PM 78.8 °F - 66.2 °F 65% 29.83 in 6.2 mi ENE 10.4 mph - N/A   Partly Cloudy
8:00 PM 78.8 °F - 66.2 °F 65% 29.83 in 6.2 mi ENE 9.2 mph - N/A   Partly Cloudy
8:30 PM 78.8 °F - 66.2 °F 65% 29.83 in 6.2 mi ENE 8.1 mph - N/A   Partly Cloudy
9:00 PM 79 °F - 65 °F 55% 29.85 in 19 mi ENE 9.2 mph - -   Haze
9:00 PM 78.8 °F - 66.2 °F 65% 29.83 in 6.2 mi ENE 9.2 mph - N/A   Scattered Clouds
9:30 PM 78.8 °F - 66.2 °F 65% 29.86 in 6.2 mi East 8.1 mph - N/A   Scattered Clouds
10:00 PM 78 °F - 65 °F 56% 29.88 in - East 8.1 mph - -  
10:00 PM 78.8 °F - 66.2 °F 65% 29.86 in 6.2 mi East 8.1 mph - N/A   Partly Cloudy
10:30 PM 77.0 °F - 64.4 °F 65% 29.86 in 6.2 mi ENE 8.1 mph - N/A   Partly Cloudy
11:00 PM 78.8 °F - 64.4 °F 61% 29.83 in 6.2 mi NE 8.1 mph - N/A   Mostly Cloudy
11:30 PM 78.8 °F - 66.2 °F 65% 29.83 in 6.2 mi ENE 8.1 mph - N/A   Mostly Cloudy